Location: Brunsen
(51.8651°N, 9.8610°E)
Time: 14:31:24
(UTC+00:00)

FENGYUN 1C DEB - Visible Passes

Search period start: 03 October 2024 00:00
Search period end: 13 October 2024 00:00
Orbit: 649 x 866 km, 99.3° (Epoch: 01 October)

Date Brightness Start Highest point End Pass type
(mag) Time Alt. Az. Time Alt. Az. Time Alt. Az.
03 Oct ? 03:35:06 10° ESE 03:39:05 28° ENE 03:43:17 10° N visible
03 Oct ? 18:53:20 10° N 18:58:28 49° WNW 19:03:47 10° SW visible
03 Oct ? 20:34:10 10° NNW 20:36:07 12° NW 20:38:06 10° WNW visible
04 Oct ? 02:57:46 10° E 03:00:36 16° NE 03:03:33 10° NNE visible
04 Oct ? 04:33:54 10° SSE 04:38:32 81° ENE 04:43:31 10° NNW visible
04 Oct ? 18:14:12 10° NNE 18:19:37 88° ESE 18:25:12 10° SSW visible
04 Oct ? 19:53:51 10° N 19:57:45 21° NW 20:01:44 10° W visible
05 Oct ? 03:55:21 10° SE 03:59:43 40° ENE 04:04:22 10° N visible
05 Oct ? 17:35:20 10° NNE 17:40:33 46° E 17:45:54 10° S visible
05 Oct ? 19:14:17 10° N 19:19:11 37° WNW 19:24:12 10° SW visible
06 Oct ? 03:17:31 10° ESE 03:21:07 22° NE 03:24:53 10° N visible
06 Oct ? 04:54:39 10° S 04:59:20 71° WSW 05:04:22 10° NNW visible
06 Oct ? 18:35:01 10° NNE 18:40:25 68° WNW 18:45:57 10° SSW visible
06 Oct ? 20:15:06 10° NNW 20:18:17 16° NW 20:21:31 10° W visible
07 Oct ? 02:40:46 10° ENE 02:42:43 12° NE 02:44:43 10° NNE visible
07 Oct ? 04:15:45 10° SE 04:20:23 57° ENE 04:25:20 10° N visible
07 Oct ? 17:56:00 10° NNE 18:01:26 65° ESE 18:07:00 10° S visible
07 Oct ? 19:35:17 10° N 19:39:48 28° WNW 19:44:26 10° WSW visible
08 Oct ? 03:37:31 10° ESE 03:41:39 29° ENE 03:46:00 10° N visible
08 Oct ? 17:17:18 10° NNE 17:22:15 33° E 17:27:17 10° SSE visible
08 Oct ? 18:55:53 10° N 19:01:07 49° WNW 19:06:30 10° SW visible
08 Oct ? 20:36:37 10° NNW 20:38:44 12° NW 20:40:53 10° WNW visible
09 Oct ? 03:00:05 10° E 03:03:08 17° NE 03:06:18 10° NNE visible
09 Oct ? 04:36:18 10° SSE 04:41:04 82° ENE 04:46:12 10° NNW visible
09 Oct ? 18:16:43 10° NNE 18:22:14 89° E 18:27:53 10° SSW visible
09 Oct ? 19:56:21 10° N 20:00:21 21° NW 20:04:24 10° W visible
10 Oct ? 03:57:41 10° SE 04:02:12 41° ENE 04:07:00 10° N visible
10 Oct ? 17:37:49 10° NNE 17:43:10 47° E 17:48:32 10° S visible
10 Oct ? 19:16:46 10° N 19:21:46 37° WNW 19:26:50 10° SW visible
11 Oct ? 03:19:48 10° ESE 03:23:35 23° NE 03:27:32 10° N visible
11 Oct ? 04:56:58 10° S 05:01:47 71° WSW 05:06:57 10° NNW visible
11 Oct ? 16:59:21 10° NE 17:03:50 25° E 17:08:20 10° SE visible
11 Oct ? 18:37:29 10° NNE 18:42:58 68° WNW 18:48:32 10° SSW visible
11 Oct ? 20:17:31 10° NNW 20:20:48 16° NW 20:24:08 10° W visible
12 Oct ? 02:42:54 10° ENE 02:45:09 13° NE 02:47:27 10° NNE visible
12 Oct ? 04:18:01 10° SE 04:22:48 58° ENE 04:27:54 10° N visible
12 Oct ? 17:58:26 10° NNE 18:03:58 66° ESE 18:09:32 10° S visible
12 Oct ? 19:37:43 10° N 19:42:18 28° WNW 19:46:58 10° WSW visible
